THORAD AGENA D DEB, 4934

Orbit data source: Space-Track

THORAD AGENA D DEB, 4934 is space debris in SSO originally from a launch on Wed, 08 Apr 1970 UTC launched from the Air Force Western Test Range (AFWTR). Debris objects in space refer to the collection of defunct objects orbiting the Earth. Examples of debris include non-operational satellites, rocket bodies, and fragments generated from explosions, collisions, or faulty payload assembly.

Loading next visibility...
Identifier
4934, 1970-025GA
Orbit
SSO
Country
Flag of USUS
Related business
Manufacturer
Unknown
Mission
Spacecraft
Bus & Motor
Unknown
Mass
Unknown
Launch date (UTC)
1970-04-08 (56 years ago)
Launch vehicle
Unknown
Launch site
Air Force Western Test Range (AFWTR)
Object type
Payload
Rocket body
Debris
Shape & HBR
Unknown shape, 0.1 m
Radar Cross Section
Small (<0.1 m²)

Expand to show TLE details & history
Last TLE update: 21 hours ago

TLE from 21 hours ago
0 THORAD AGENA D DEB
1 04934U 70025GA  25349.85242714  .00000776  00000-0  86172-3 0  9997
2 04934 100.0065 101.7821 0005632 281.7983 203.9470 13.75185908771173
Epoch: 2025-12-15T20:27Z
TLE epoch observation values (Epoch: 2025-12-15T20:27:29.704Z)
Latitude
53.1855°
Longitude
-96.27395°
Altitude
993.396 km
Speed
7.358 km/s
True Right ascension
19h 41m 22s
True Declination
53° 01' 32"
Sunlit
Object was in daylight at epoch
Visualization orbit readout
Latitude
Unknown
Longitude
Unknown
Altitude
Unknown
Speed
Unknown
Apparent Right ascension
Unknown
Apparent Declination
Unknown
Sunlit
N/A
Visualization observer readout
Local Sidereal Time
16:12:03
Azimuth
Unknown
Elevation
Unknown
Doppler factor
Unknown
Orbital elements
Apogee altitude
982.439 km
Perigee altitude
974.152 km
Semi-major axis
7,356.432 km
Eccentricity
0.00056
Inclination
100.0065°
RAAN
101.7821°
Arg. of periapsis
281.7983°
True anomaly
203.92082°
Mean anomaly
203.947°
Eccentric anomaly
203.93391°
Mean motion
3.43987 °/min
Orbital period
104.66 mins
BSTAR
0.00086172
Loading maneuver chart data...
Computing Atmospheric mass density...

Documentation

Showing up to 5 results
|